GFSNIL_925_spd_036.txt.gz
Wind_Speed
40 43 41 44 42 42 40 41 40 40 38 35 33 32 28 25 21 18 16 13 9 8
36 37 42 41 41 40 39 39 37 38 35 34 32 29 27 25 20 17 15 11 10 8
35 38 40 42 40 38 37 36 37 36 36 34 31 28 25 20 16 16 14 10 8 7
32 35 36 37 34 34 33 35 35 38 37 32 29 24 20 17 15 11 10 10 8 7
31 31 30 31 31 30 31 31 32 34 32 29 25 21 15 19 15 11 9 6 6 5
28 30 29 28 28 28 29 30 30 32 30 27 21 17 18 11 9 8 3 4 4 6
25 23 27 27 29 30 29 29 29 26 23 22 18 14 14 14 9 6 4 4 7 9
27 28 30 30 29 30 29 28 27 26 24 22 19 14 11 9 5 3 5 6 7 10
26 28 29 32 32 33 32 31 29 26 22 16 14 12 6 6 1 3 5 5 7 9
31 26 29 33 34 34 31 28 26 22 19 15 9 6 5 4 4 1 3 4 8 9
27 28 31 32 30 28 26 24 22 18 12 7 7 9 7 2 2 2 5 6 6 9
32 31 28 27 27 23 24 18 14 10 10 11 9 6 2 2 3 5 8 7 7 11
23 24 25 23 24 19 18 16 14 11 7 6 5 6 4 4 7 8 10 9 11 14
22 22 22 20 17 18 15 15 13 10 7 5 3 3 2 5 9 9 9 14 19 19

GFSNIL_925_spd_039.txt.gz
Wind_Speed
30 36 38 40 38 42 43 47 46 46 46 43 41 38 35 32 27 23 17 14 11 9
23 31 36 39 40 41 40 41 45 45 43 40 36 33 31 28 23 18 18 14 10 9
24 29 35 37 39 38 35 35 37 38 38 34 31 29 28 24 20 18 13 10 11 8
21 26 31 34 34 34 32 31 31 30 31 30 29 29 27 24 20 17 12 6 5 10
18 20 24 26 25 25 25 24 25 27 28 28 28 28 26 23 18 14 10 11 9 11
16 18 19 20 21 22 22 23 24 27 28 28 28 25 20 15 12 9 7 5 8 5
9 12 14 17 20 22 25 28 28 26 27 28 24 21 18 15 12 9 6 6 3 7
16 19 22 23 25 25 26 27 28 31 30 27 24 21 20 17 12 8 6 7 8 6
22 23 27 27 28 28 28 30 32 30 28 24 21 18 14 10 6 4 3 5 6 7
20 23 25 28 27 28 29 30 30 27 24 21 17 13 10 6 3 2 2 4 5 6
21 22 25 29 29 30 27 28 27 24 19 16 16 11 9 6 4 2 2 5 5 6
22 19 23 26 25 23 27 23 20 17 14 13 11 10 9 4 2 2 3 5 6 8
20 21 23 24 25 23 22 20 17 15 11 9 10 6 6 0 4 6 7 7 9 13
20 23 24 23 22 21 21 19 15 14 11 9 7 5 3 5 5 4 5 11 15 15

GFSNIL_925_spd_045.txt.gz
Wind_Speed
12 19 24 28 27 27 31 35 34 37 40 44 45 44 39 39 40 40 38 39 31 25
13 14 18 23 28 30 33 34 33 31 33 35 36 36 33 33 32 33 35 35 27 23
12 11 13 17 23 26 27 28 28 26 26 30 32 32 30 27 26 29 29 29 26 23
15 13 11 11 15 19 21 21 20 21 22 23 25 25 27 27 27 27 28 26 26 22
16 17 14 11 9 9 11 12 14 15 17 18 20 22 25 24 25 28 28 27 25 21
15 13 8 7 3 3 2 6 10 13 15 18 20 21 21 23 26 27 27 22 18 15
17 12 7 6 4 6 10 11 11 13 16 18 20 22 24 26 28 25 21 18 15 12
12 9 7 8 8 11 13 15 16 18 19 20 22 23 27 26 25 23 20 15 12 8
13 10 10 10 12 15 18 19 21 24 24 24 25 22 22 22 22 19 15 13 9 6
13 13 13 13 16 20 23 24 27 27 27 27 24 21 21 19 18 16 12 9 6 6
14 16 17 19 21 22 26 27 29 29 30 26 21 20 17 15 14 13 10 9 7 4
15 17 18 20 21 23 27 27 26 25 24 24 18 17 16 15 14 11 9 7 5 2
16 18 20 21 22 24 26 26 23 22 20 18 17 12 13 10 7 7 5 4 3 4
18 19 19 20 20 20 21 21 19 19 17 13 12 12 10 6 5 4 4 4 5 6

GFSNIL_925_spd_051.txt.gz
Wind_Speed
9 9 11 12 17 20 20 20 20 21 24 26 30 32 32 30 31 31 32 31 31 26
8 9 10 11 12 14 16 18 20 22 21 22 24 27 28 30 29 28 26 27 27 23
9 10 10 10 11 11 12 14 16 17 17 18 20 21 24 27 26 26 25 24 24 20
11 11 11 10 11 11 11 11 11 12 13 15 18 17 19 22 23 23 21 20 22 23
11 12 11 11 12 12 11 10 9 9 9 9 12 13 12 14 14 18 17 17 17 15
12 12 12 13 13 12 11 10 9 6 3 3 3 2 6 9 9 10 10 11 12 13
11 10 9 10 11 11 11 10 10 10 10 5 3 4 4 6 9 8 8 10 12 15
10 10 11 13 13 13 14 13 12 11 9 9 8 9 9 9 15 15 16 16 16 12
10 10 12 14 13 16 19 20 21 22 21 21 19 16 16 18 20 19 17 17 16 15
10 12 12 13 14 18 21 22 24 25 27 22 19 19 17 17 20 17 15 14 13 11
11 13 14 17 18 20 22 24 24 25 24 23 20 20 16 17 17 15 11 11 9 8
12 14 16 19 19 20 22 22 21 19 19 19 17 16 14 13 11 9 10 8 7 5
15 16 17 17 18 18 20 20 19 18 17 14 14 11 10 7 6 6 6 5 4 4
14 14 14 14 14 13 13 13 12 12 11 11 9 8 9 9 7 6 4 3 2 3

GFSNIL_925_spd_054.txt.gz
Wind_Speed
10 10 10 12 13 13 14 15 16 18 19 22 25 25 29 33 36 33 32 32 37 27
12 11 12 12 12 11 10 12 13 13 15 17 20 23 21 27 32 32 32 32 33 30
12 11 11 11 12 12 13 14 15 15 13 13 13 19 18 21 24 26 29 28 27 25
12 12 11 10 10 12 10 12 13 14 15 14 11 13 16 15 17 19 18 18 17 19
12 11 11 13 13 11 11 9 10 11 9 9 10 11 9 8 9 10 10 9 11 12
12 12 13 12 11 11 10 9 9 8 10 10 10 9 6 3 1 2 5 4 4 4
12 12 11 10 10 10 11 10 9 10 10 10 10 9 7 4 4 5 7 7 7 8
9 7 9 11 11 13 17 17 16 17 17 16 15 12 8 9 8 13 13 15 12 12
7 8 11 10 12 15 18 19 20 20 21 22 20 18 15 14 16 17 16 17 14 19
8 10 12 13 15 17 20 20 22 22 22 22 18 15 15 15 17 16 15 13 12 12
11 14 14 15 16 18 19 20 20 18 18 21 18 17 16 15 14 13 11 11 12 11
13 14 14 16 15 15 17 18 17 17 18 20 17 14 13 13 13 11 10 8 8 5
13 14 14 14 14 14 15 16 16 17 15 13 14 12 12 8 7 8 6 5 5 5
11 12 12 11 12 13 12 12 12 13 10 10 10 10 11 10 7 7 6 5 5 3

GFSNIL_925_spd_057.txt.gz
Wind_Speed
10 9 9 10 9 8 8 8 9 9 9 8 10 17 20 21 23 26 30 33 31 32
9 8 9 7 6 8 10 12 12 12 11 9 7 10 14 16 16 20 25 29 26 27
8 7 7 7 8 10 11 12 12 11 11 9 7 6 8 11 17 20 21 22 25 21
8 9 8 8 9 9 9 11 12 12 11 11 10 10 10 13 17 18 18 17 13 11
8 8 9 10 11 9 7 8 10 10 10 10 11 11 10 10 10 8 7 7 7 6
8 10 11 12 11 10 8 9 8 9 10 10 10 10 9 7 5 4 3 3 4 3
9 11 11 11 11 11 12 11 11 11 11 11 10 9 7 6 6 6 7 6 6 5
9 9 9 11 11 10 11 12 13 15 18 17 18 13 9 10 10 11 13 14 15 14
8 8 10 11 11 11 14 15 18 20 21 20 19 16 15 14 15 15 15 14 13 13
8 10 11 12 12 14 16 16 20 21 20 19 17 15 13 13 15 14 12 11 9 9
11 12 12 13 13 14 14 16 17 17 16 16 14 13 13 13 13 13 13 12 11 9
11 12 12 13 12 13 14 15 19 17 15 15 14 10 10 11 10 10 10 8 8 6
12 13 12 12 13 14 13 13 14 11 10 10 13 11 9 6 6 7 6 5 6 6
12 12 11 12 13 11 10 10 9 6 6 8 7 8 8 8 8 7 4 4 4 2

GFSNIL_925_spd_060.txt.gz
Wind_Speed
5 4 5 4 3 4 5 7 10 10 10 10 9 9 9 11 12 14 15 17 19 22
4 4 5 4 5 6 7 8 10 11 10 9 8 7 7 7 8 9 12 15 17 17
6 6 5 5 6 7 7 8 9 9 9 8 8 7 6 6 7 10 12 16 18 19
6 6 6 6 7 7 7 8 8 9 9 9 9 8 8 7 9 9 10 12 10 7
6 6 7 7 8 7 7 7 8 8 8 9 9 9 9 9 8 8 9 8 7 6
6 7 8 9 9 8 7 7 8 9 10 10 10 9 8 7 9 9 9 8 9 9
7 8 8 8 8 7 9 11 13 14 13 13 12 10 9 10 11 10 11 12 12 13
6 5 5 8 9 9 11 13 15 16 17 18 17 15 13 15 15 15 15 15 16 17
3 5 7 9 10 12 14 15 16 18 18 19 17 15 15 14 15 14 14 14 13 11
4 7 9 10 12 13 14 15 16 15 16 18 16 14 13 12 13 13 13 12 11 11
9 10 11 11 11 11 13 14 15 14 13 15 14 12 12 12 12 12 12 11 10 9
10 11 12 11 10 11 14 15 15 14 12 12 12 8 8 8 8 8 8 8 9 9
12 11 10 11 10 11 14 14 11 10 9 9 11 9 9 7 7 7 6 6 6 5
13 12 11 12 12 10 8 8 6 5 5 6 6 7 7 8 9 8 8 7 8 7

GFSNIL_925_spd_063.txt.gz
Wind_Speed
3 3 3 2 3 5 6 7 9 8 8 8 7 6 5 5 6 6 5 6 7 7
3 2 2 2 3 4 5 6 7 8 7 7 6 5 2 1 3 6 6 5 6 6
3 3 3 3 3 4 4 5 6 7 8 8 8 7 4 3 3 2 3 5 6 6
3 3 4 4 5 4 4 5 5 6 6 7 7 7 6 6 6 6 7 7 7 6
3 4 4 5 5 4 4 5 6 6 6 7 8 8 9 9 10 10 10 10 8 8
3 4 4 5 6 5 6 7 7 8 9 9 9 9 9 9 10 11 11 11 10 10
3 4 4 5 5 5 7 10 11 12 14 14 14 12 13 15 15 15 15 15 15 15
3 2 3 4 6 6 10 12 13 16 17 18 18 16 16 17 17 17 16 16 16 18
1 3 5 6 7 11 12 13 15 16 17 18 17 15 15 15 16 15 15 14 12 11
4 6 7 7 9 12 13 13 14 14 14 15 15 14 15 15 15 15 15 13 12 12
7 9 9 9 10 11 12 12 12 13 13 14 14 12 12 12 12 12 12 12 11 11
10 11 11 10 9 11 12 12 12 12 11 12 12 9 8 8 9 9 8 8 8 10
10 11 12 11 12 13 12 11 9 8 8 8 9 8 8 9 9 8 7 7 6 5
11 11 11 11 11 11 10 7 7 5 5 4 4 4 5 6 9 8 8 7 7 8

GFSNIL_925_spd_066.txt.gz
Wind_Speed
3 2 1 1 2 4 5 6 8 8 8 9 9 9 6 3 2 3 5 7 6 6
2 1 1 2 3 4 4 5 6 7 6 6 6 5 3 4 5 4 4 4 5 5
2 2 2 3 4 4 4 4 5 5 5 5 4 3 1 1 1 3 2 3 3 3
1 2 2 3 3 3 3 3 3 3 4 4 4 5 5 5 5 5 6 6 5 5
1 2 2 3 4 3 2 2 3 3 4 4 5 5 6 8 10 11 10 9 8 8
2 2 2 3 4 5 5 5 6 6 8 8 8 8 9 9 11 11 11 12 11 11
2 2 2 2 3 4 4 7 9 11 11 12 12 12 13 13 14 15 15 16 16 16
3 2 3 3 4 5 7 10 11 14 15 16 15 13 14 15 16 16 16 15 16 17
4 5 5 6 7 10 11 12 13 14 16 16 15 14 13 14 15 14 13 13 11 8
6 7 7 8 11 12 13 13 14 14 14 16 15 14 14 13 12 12 12 11 10 10
9 10 10 11 12 13 13 12 13 14 13 13 12 10 10 9 9 10 10 9 9 9
12 12 12 12 13 13 12 13 13 13 12 10 10 7 7 7 7 6 7 7 7 8
13 13 13 12 13 14 13 12 10 9 8 7 8 7 6 8 7 7 7 6 6 5
14 14 13 14 15 15 12 9 7 5 4 4 3 4 3 4 6 6 6 7 6 7

GFSNIL_925_spd_069.txt.gz
Wind_Speed
3 3 2 2 2 2 3 4 6 6 6 7 7 7 7 4 5 5 5 6 7 6
4 3 2 2 2 2 3 3 4 5 5 5 5 5 4 3 6 5 3 3 3 4
4 3 2 2 2 2 2 2 3 3 3 3 3 3 2 1 2 4 3 4 4 4
3 2 1 1 1 1 2 1 1 2 2 2 2 2 2 2 2 2 2 2 3 3
4 3 2 1 1 0 1 1 1 1 1 2 2 4 5 6 8 9 9 8 7 7
5 3 2 1 1 2 2 3 3 3 4 5 6 7 8 9 10 10 11 10 10 10
5 3 2 2 2 2 2 4 5 5 7 8 10 11 12 13 13 14 15 15 15 14
5 3 3 4 5 5 7 8 8 9 9 9 10 11 14 14 15 15 16 15 14 13
6 5 5 6 7 9 11 11 11 12 11 11 11 11 13 13 13 13 11 11 9 7
8 8 8 8 10 12 12 12 12 12 12 14 12 12 12 12 12 11 11 9 8 7
10 10 10 11 13 13 14 13 14 13 13 13 11 9 10 10 10 9 8 7 7 6
13 14 14 15 15 15 14 14 12 12 11 11 10 7 7 7 7 6 6 5 5 4
14 15 16 16 17 15 14 15 13 12 11 10 10 7 7 5 6 5 4 3 3 2
15 16 16 17 18 17 17 15 13 11 9 9 8 8 4 1 3 3 2 2 2 3

GFSNIL_925_spd_072.txt.gz
Wind_Speed
3 2 3 3 3 3 3 4 6 7 7 8 9 9 8 7 7 9 9 9 10 10
2 2 2 4 4 4 5 5 6 6 6 7 7 7 6 4 5 5 5 4 4 4
4 3 3 4 4 4 5 6 6 6 6 6 6 5 4 3 3 1 3 4 2 0
4 4 4 4 5 5 5 5 5 5 4 4 3 3 1 1 1 1 1 1 2 1
4 4 3 3 3 3 3 3 3 4 3 2 1 1 2 3 4 5 5 5 5 6
5 4 3 3 1 1 1 1 1 1 1 0 1 2 3 5 6 7 7 7 6 6
6 5 4 3 4 4 3 1 1 1 1 2 2 3 5 7 8 9 9 9 9 9
7 6 5 4 5 5 4 3 3 2 3 4 4 4 6 7 8 9 10 10 9 9
7 6 5 6 6 6 5 5 5 5 6 6 6 6 8 8 7 8 8 7 5 5
9 7 7 8 8 9 9 8 7 5 7 8 8 8 8 8 9 8 7 7 5 4
9 9 9 10 10 12 11 11 7 7 8 8 8 8 7 7 8 7 6 5 4 3
11 11 12 13 14 13 12 10 11 9 10 10 7 7 6 5 4 4 3 3 2 2
12 14 15 16 16 15 13 13 11 11 10 8 7 6 5 4 3 3 3 2 1 0
14 16 16 17 18 15 14 12 11 10 9 8 7 6 6 4 3 3 2 2 2 2

GFSNIL_925_spd_078.txt.gz
Wind_Speed
13 11 10 9 7 6 7 5 7 7 6 7 7 8 7 8 6 7 10 11 10 11
11 13 11 7 7 6 5 6 6 5 5 6 6 7 6 5 6 5 8 7 5 5
13 9 8 7 7 5 4 4 3 4 5 5 6 6 5 4 5 4 7 7 4 5
11 9 9 8 5 5 4 5 4 5 4 4 5 5 3 5 5 4 5 3 3 4
12 12 9 7 5 4 4 4 5 5 4 4 4 3 2 3 1 1 1 2 3 1
11 9 7 5 4 3 2 2 3 3 3 3 3 2 3 2 3 5 6 6 5 5
11 8 7 6 4 4 4 4 4 5 4 4 3 2 2 4 5 5 5 6 6 6
12 10 9 7 5 4 3 3 4 4 4 3 2 3 4 6 7 8 8 7 7 7
12 10 9 6 5 4 4 4 4 4 4 4 4 4 7 8 9 7 8 8 7 5
13 12 11 9 7 6 5 5 5 5 4 4 4 6 8 9 9 9 8 8 7 5
14 13 11 9 8 8 8 9 8 7 7 7 5 7 7 8 8 7 8 8 7 6
15 15 13 11 11 11 11 10 10 11 10 8 7 7 7 7 7 7 6 5 5 7
15 15 13 13 13 12 12 12 12 10 10 8 7 7 8 8 6 6 5 4 3 4
16 14 13 13 13 13 13 12 11 11 11 10 9 8 9 8 7 5 5 5 4 2

GFSNIL_925_spd_081.txt.gz
Wind_Speed
19 18 17 18 17 16 13 11 8 7 7 7 8 8 8 8 8 8 9 10 13 14
18 18 17 13 13 12 10 10 10 7 7 7 7 7 7 7 7 7 7 8 8 8
20 17 15 15 15 10 11 9 7 6 7 7 7 7 7 7 7 7 8 6 9 9
16 16 15 13 9 9 10 7 6 6 6 7 7 7 6 6 6 7 8 7 6 8
15 13 15 16 14 10 5 4 6 6 6 6 6 6 5 5 5 5 7 7 7 6
15 13 11 9 9 6 6 7 6 5 4 5 5 5 4 4 6 6 5 7 6 6
16 14 13 9 7 6 7 7 6 6 5 5 4 4 4 5 6 6 5 5 4 4
16 15 14 11 9 9 7 6 7 6 5 3 4 4 6 8 8 7 7 6 6 6
19 17 16 12 10 8 7 7 6 6 5 4 5 5 7 10 10 7 8 10 8 6
19 17 15 12 10 9 8 7 6 6 5 5 5 6 8 10 9 9 9 8 6 6
20 18 16 14 11 10 8 8 8 7 7 7 5 8 9 9 9 10 10 8 6 6
20 19 18 15 12 10 9 9 9 10 10 8 8 8 8 9 9 9 9 8 7 6
20 19 18 14 11 10 10 10 11 11 10 9 9 9 9 8 9 9 9 8 7 7
18 17 15 11 11 11 10 11 12 12 11 11 11 11 11 11 10 10 10 9 9 9

GFSNIL_925_spd_084.txt.gz
Wind_Speed
21 24 22 20 20 18 15 11 10 9 8 9 9 10 11 11 11 11 12 13 12 12
21 20 20 20 17 15 13 12 10 9 9 9 8 9 10 10 11 10 10 12 11 11
18 19 18 20 18 15 14 11 9 9 10 10 7 9 10 11 10 10 10 11 9 8
16 17 17 14 16 14 12 12 12 11 10 9 9 9 11 10 10 10 10 10 8 10
17 16 15 14 12 13 11 9 9 10 9 9 9 9 10 9 10 10 9 9 9 8
16 15 14 13 12 11 10 9 9 7 7 8 9 8 9 9 9 8 7 8 8 9
17 16 14 13 12 10 9 9 8 7 7 8 8 8 9 8 7 6 6 5 6 7
16 15 15 13 11 9 9 8 7 7 8 7 7 7 8 9 10 9 7 6 4 4
17 17 16 14 11 10 9 7 8 8 8 8 7 9 9 10 11 9 7 7 7 5
19 18 17 14 12 11 10 9 9 9 8 9 9 8 8 11 12 9 9 9 8 7
21 19 17 15 14 12 11 11 10 10 10 10 8 7 10 10 11 10 9 8 7 6
23 21 19 17 15 13 12 12 12 12 12 11 8 9 9 10 11 10 10 8 7 7
23 22 20 17 16 14 14 13 12 12 13 12 10 10 9 9 11 11 10 9 8 7
22 20 18 17 16 13 14 12 13 14 14 13 12 13 12 11 12 12 12 11 11 9

GFSNIL_925_spd_087.txt.gz
Wind_Speed
16 19 19 22 25 26 21 13 11 8 5 5 6 8 9 9 10 10 10 12 13 12
14 14 15 16 16 14 14 13 11 9 7 6 7 9 10 11 10 10 9 10 11 12
11 13 13 13 12 16 15 12 7 6 6 6 8 9 10 10 10 11 10 10 11 10
10 11 12 13 15 14 13 11 8 8 9 10 10 11 11 12 10 12 11 10 10 9
10 12 12 12 11 9 8 5 6 9 8 8 9 11 11 12 10 11 10 9 10 11
13 13 12 12 12 11 8 8 7 6 7 7 9 10 10 10 9 9 8 8 9 9
15 14 13 13 11 8 8 7 6 7 6 7 9 9 10 10 8 6 5 5 5 7
16 15 15 14 11 10 8 7 7 7 7 8 8 8 8 7 7 7 8 8 6 6
17 16 16 14 13 11 9 8 7 6 7 8 7 8 10 10 11 10 8 7 5 4
19 18 17 16 14 12 10 9 8 8 8 8 8 8 10 9 10 10 9 8 7 6
21 20 18 18 15 12 11 10 10 9 8 8 9 9 8 10 10 10 9 9 8 7
23 22 21 20 17 14 12 11 10 9 9 10 10 9 9 11 10 11 10 9 9 8
24 24 23 20 17 15 12 10 10 10 9 11 12 10 9 10 10 11 11 11 9 8
22 23 21 18 18 15 12 11 11 11 12 13 14 12 11 10 11 12 12 11 11 10

GFSNIL_925_spd_090.txt.gz
Wind_Speed
11 15 16 16 18 19 19 14 12 9 11 10 7 3 3 5 6 7 7 8 9 9
7 7 8 11 14 15 19 19 17 14 11 8 4 2 4 5 6 7 9 9 8 8
5 6 6 9 12 18 19 17 18 14 11 8 4 4 4 4 6 7 8 7 7 8
5 6 7 10 13 15 17 19 18 14 9 4 3 1 4 5 6 7 8 8 7 7
6 8 11 13 15 17 16 13 9 8 4 5 1 3 4 4 5 6 7 7 6 6
10 10 12 15 16 16 14 12 9 6 6 2 0 1 5 6 6 5 5 5 4 5
12 13 12 12 12 12 11 9 8 6 4 3 0 2 4 5 4 3 2 4 3 5
13 13 14 15 15 13 12 10 9 7 4 1 1 2 3 5 3 5 7 6 5 4
12 14 15 14 13 12 11 9 7 5 3 1 1 1 3 5 6 7 7 5 4 3
16 15 15 14 14 13 11 9 7 6 4 3 3 3 5 6 8 8 8 6 6 5
18 18 17 17 16 14 12 10 8 6 5 5 5 5 6 6 6 7 8 7 7 6
22 22 22 21 19 17 14 12 11 9 9 9 7 7 6 7 6 7 8 8 8 7
25 25 25 23 21 18 15 13 11 10 9 8 8 8 7 9 9 9 9 9 9 8
24 25 24 21 20 17 14 12 11 10 10 9 9 10 9 10 10 10 10 10 10 9

GFSNIL_925_spd_096.txt.gz
Wind_Speed
18 19 22 28 26 25 28 28 26 27 26 26 25 24 22 19 17 16 16 15 14 10
8 12 14 16 16 21 21 23 28 26 26 27 25 23 21 18 16 14 13 12 12 9
5 6 9 12 16 18 19 21 26 24 23 24 23 21 19 15 14 13 12 11 11 9
5 7 10 10 10 14 17 21 23 23 24 24 23 21 18 15 14 13 12 12 11 10
4 5 6 8 10 12 14 19 23 23 22 21 20 17 15 14 13 11 10 10 9 9
4 3 4 6 9 12 14 16 18 20 19 19 18 15 14 12 9 8 9 8 7 8
4 4 5 6 9 12 13 15 17 17 18 17 16 15 14 12 9 9 8 7 7 6
7 7 6 8 9 10 12 13 14 15 15 15 14 13 13 11 10 10 8 7 6 7
9 10 10 9 10 12 13 14 15 14 14 14 13 14 14 10 8 10 10 8 7 7
8 10 11 13 13 14 13 12 12 12 12 12 11 15 13 11 8 8 8 10 10 9
10 12 12 14 16 15 15 16 16 15 15 14 13 16 14 12 11 10 11 13 12 11
10 13 15 17 17 17 17 16 16 15 16 15 14 18 16 13 11 11 11 10 11 12
12 14 17 18 17 20 20 22 19 17 16 16 13 16 17 15 9 9 9 9 12 12
11 13 17 17 20 23 20 18 19 17 16 15 14 12 15 15 12 10 11 11 13 14

GFSNIL_925_spd_099.txt.gz
Wind_Speed
18 23 32 39 40 33 28 30 28 25 21 28 25 24 24 25 22 20 18 17 16 12
8 11 14 21 22 21 25 25 28 27 32 34 31 28 27 24 21 17 16 15 13 10
4 4 7 9 12 15 18 19 23 25 32 34 29 28 23 21 19 16 14 12 11 10
2 3 4 4 5 7 11 17 22 27 28 26 24 24 24 23 20 17 13 12 11 10
1 2 2 3 4 5 8 13 19 24 24 22 23 23 23 23 19 16 15 14 13 13
2 1 0 1 2 3 5 9 16 19 21 20 22 21 19 17 15 14 13 12 11 10
5 3 1 1 4 5 7 9 11 14 16 18 18 18 17 16 14 13 13 13 12 12
4 4 3 3 3 4 7 9 10 13 15 16 18 18 16 15 13 12 11 11 10 11
9 6 5 6 7 8 9 11 12 14 14 15 13 15 17 15 13 13 13 13 12 11
11 10 10 8 8 10 12 12 13 13 14 15 14 16 19 18 13 14 13 13 13 11
11 11 12 12 14 14 15 16 16 16 16 16 16 17 20 19 15 13 13 14 14 13
15 14 14 16 18 17 16 16 19 18 19 20 18 18 20 18 14 12 13 13 13 14
13 14 16 17 18 18 20 20 20 18 20 21 19 18 22 21 14 14 14 14 14 17
13 13 13 15 16 18 18 17 20 21 21 20 22 20 25 25 20 16 17 17 15 17

GFSNIL_925_spd_105.txt.gz
Wind_Speed
9 10 12 16 22 21 19 18 16 17 18 19 18 17 19 25 27 18 17 15 15 17
11 20 27 28 26 27 27 23 21 20 22 24 26 27 27 27 26 23 22 17 17 20
4 7 13 19 23 26 28 28 28 28 29 29 30 33 30 34 30 26 23 22 20 20
5 3 1 2 5 6 10 12 17 24 26 27 30 31 33 34 34 31 26 23 23 22
10 8 6 3 1 4 7 8 10 12 16 18 23 26 31 34 35 33 28 25 24 24
12 10 8 7 6 6 7 8 9 11 14 16 19 22 24 26 27 27 27 24 25 25
15 13 12 10 10 9 8 10 10 10 11 13 15 17 19 20 20 20 21 21 25 24
13 13 12 11 10 10 10 10 12 13 12 13 15 17 19 20 20 21 21 21 22 21
15 15 15 14 12 12 12 12 12 13 14 14 16 16 17 17 18 19 22 23 22 20
15 16 17 16 16 14 14 14 15 16 15 16 17 17 17 19 21 21 23 24 23 22
17 16 15 15 15 16 16 16 17 17 18 20 22 20 20 19 20 22 24 25 25 25
18 16 16 18 18 19 18 18 20 21 21 21 23 22 22 22 23 25 26 25 25 25
18 17 15 17 16 18 18 19 20 21 21 22 25 25 25 25 26 28 29 28 27 26
21 20 18 19 19 19 20 20 21 21 23 23 23 26 27 28 29 29 26 28 29 29

GFSNIL_925_spd_111.txt.gz
Wind_Speed
20 16 13 13 12 12 8 6 6 6 9 12 13 12 14 18 21 23 25 24 27 28
12 11 14 11 9 8 8 10 12 17 19 17 16 20 22 22 23 21 22 22 25 30
11 9 6 5 5 4 7 9 16 17 17 19 21 22 23 26 27 24 25 29 30 33
18 16 14 12 9 6 4 0 5 11 16 19 22 24 28 29 28 27 27 30 31 31
19 17 17 15 12 9 6 4 2 4 6 7 10 12 16 18 19 22 25 26 28 31
22 20 17 15 12 10 10 9 7 6 6 6 8 12 14 16 18 20 22 23 25 27
22 20 18 15 14 13 12 10 10 10 11 11 11 12 13 15 18 20 21 22 23 25
18 17 16 17 15 13 12 12 12 12 13 13 14 16 18 17 18 20 21 23 25 26
17 17 16 15 15 15 15 16 15 16 16 17 16 16 17 18 20 21 21 24 25 24
17 17 17 17 16 16 17 18 18 17 16 17 18 18 18 18 19 22 24 24 24 26
19 19 18 18 21 22 21 22 22 22 22 22 20 19 20 21 22 22 24 25 25 26
13 12 11 13 15 14 16 17 18 19 22 22 22 21 21 22 24 26 27 25 26 26
10 13 15 15 15 16 17 18 20 20 19 20 22 22 24 23 24 21 22 25 27 25
14 11 10 13 13 14 15 14 15 16 19 20 19 21 22 22 22 21 24 23 23 27